• In Hungary
  • List of Countries
  • For 7 days
  • Water Temperature
  • Satellite Maps
  • Weather Map
  • News
  • Weather Widgets
  • user-avatar
    Login

    Hourly Weather Rutkowice

    Today, 13 December, Wednesday

    Time Temperature Precipitation Wind Pressure Humidity
    00:00 -1°C° 0 mm 7 mps 747 mmHg 73%
    01:00 -1°C° 0 mm 6 mps 748 mmHg 76%
    02:00 -1°C° 0 mm 6 mps 748 mmHg 78%
    03:00 -1°C° 0 mm 5 mps 748 mmHg 81%
    04:00 -1°C° 0 mm 4 mps 749 mmHg 83%
    05:00 -2°C° 0 mm 4 mps 749 mmHg 86%
    06:00 -2°C° 0 mm 4 mps 750 mmHg 88%
    07:00 -1°C° 0 mm 3 mps 750 mmHg 90%
    08:00 -1°C° 0 mm 3 mps 750 mmHg 89%
    09:00 -2°C° 0 mm 4 mps 750 mmHg 87%
    10:00 -1°C° 0 mm 4 mps 751 mmHg 85%
    11:00 -1°C° 0 mm 4 mps 750 mmHg 82%
    12:00 0°C° 0 mm 4 mps 750 mmHg 79%
    13:00 0°C° 0 mm 4 mps 749 mmHg 76%
    14:00 0°C° 0 mm 4 mps 749 mmHg 78%
    15:00 0°C° 0 mm 3 mps 749 mmHg 80%
    16:00 -1°C° 0 mm 3 mps 748 mmHg 82%
    17:00 -2°C° 0 mm 4 mps 747 mmHg 80%
    18:00 -2°C° 0 mm 4 mps 747 mmHg 79%
    19:00 -1°C° 0 mm 5 mps 746 mmHg 77%
    20:00 -2°C° 0 mm 5 mps 745 mmHg 75%
    21:00 -3°C° 0 mm 6 mps 744 mmHg 74%
    22:00 -3°C° 0 mm 6 mps 743 mmHg 72%
    23:00 -2°C° 0 mm 6 mps 742 mmHg 70%

    Tomorrow, 14 December, Thursday

    Time Temperature Precipitation Wind Pressure Humidity
    00:00 -2°C° 0 mm 7 mps 741 mmHg 67%
    01:00 -2°C° 0 mm 7 mps 740 mmHg 65%
    02:00 -2°C° 0 mm 7 mps 739 mmHg 63%
    03:00 -1°C° 0 mm 7 mps 738 mmHg 62%
    04:00 -1°C° 0 mm 8 mps 736 mmHg 61%
    05:00 -1°C° 0.3 mm 8 mps 735 mmHg 62%
    06:00 0°C° 0.3 mm 8 mps 735 mmHg 64%
    07:00 0°C° 0.3 mm 8 mps 734 mmHg 65%
    08:00 0°C° 0.6 mm 8 mps 734 mmHg 68%
    09:00 +1°C° 0.6 mm 8 mps 733 mmHg 72%
    10:00 +1°C° 0.6 mm 8 mps 733 mmHg 75%
    11:00 +1°C° 0.3 mm 8 mps 733 mmHg 75%
    12:00 +2°C° 0.3 mm 7 mps 734 mmHg 76%
    13:00 +2°C° 0.3 mm 6 mps 734 mmHg 76%
    14:00 0°C° 0.5 mm 7 mps 735 mmHg 78%
    15:00 0°C° 0.5 mm 7 mps 735 mmHg 80%
    16:00 0°C° 0.5 mm 7 mps 736 mmHg 82%
    17:00 -1°C° 0 mm 7 mps 736 mmHg 79%
    18:00 -1°C° 0 mm 7 mps 736 mmHg 77%
    19:00 -1°C° 0 mm 6 mps 737 mmHg 74%
    20:00 -2°C° 0 mm 6 mps 737 mmHg 74%
    21:00 -2°C° 0 mm 6 mps 737 mmHg 74%
    22:00 -2°C° 0 mm 6 mps 737 mmHg 73%
    23:00 -2°C° 0 mm 6 mps 736 mmHg 72%

    Day after tomorrow, 15 December, Friday

    Time Temperature Precipitation Wind Pressure Humidity
    00:00 -2°C° 0 mm 7 mps 736 mmHg 71%
    01:00 -2°C° 0 mm 7 mps 736 mmHg 70%
    02:00 -2°C° 0 mm 6 mps 735 mmHg 71%
    03:00 -2°C° 0 mm 6 mps 734 mmHg 73%
    04:00 -1°C° 0 mm 5 mps 733 mmHg 74%
    05:00 -1°C° 0.1 mm 6 mps 733 mmHg 74%
    06:00 -1°C° 0.1 mm 6 mps 732 mmHg 75%
    07:00 0°C° 0.1 mm 7 mps 731 mmHg 75%
    08:00 0°C° 0.4 mm 7 mps 731 mmHg 74%
    09:00 +1°C° 0.4 mm 8 mps 731 mmHg 73%
    10:00 +1°C° 0.4 mm 8 mps 730 mmHg 72%
    11:00 +1°C° 0.1 mm 9 mps 731 mmHg 73%
    12:00 +1°C° 0.1 mm 9 mps 731 mmHg 75%
    13:00 0°C° 0.1 mm 10 mps 732 mmHg 77%
    14:00 0°C° 0.1 mm 9 mps 733 mmHg 78%
    15:00 0°C° 0.1 mm 8 mps 734 mmHg 79%
    16:00 -1°C° 0.1 mm 6 mps 735 mmHg 81%
    17:00 -1°C° 0 mm 6 mps 735 mmHg 81%
    18:00 -1°C° 0 mm 6 mps 736 mmHg 81%
    19:00 -1°C° 0 mm 6 mps 736 mmHg 81%
    20:00 -1°C° 0 mm 6 mps 737 mmHg 82%
    21:00 -1°C° 0 mm 5 mps 737 mmHg 82%
    22:00 -1°C° 0 mm 5 mps 737 mmHg 82%
    23:00 -2°C° 0 mm 4 mps 738 mmHg 83%

    16 December, Saturday

    Time Temperature Precipitation Wind Pressure Humidity
    00:00 -2°C° 0 mm 4 mps 738 mmHg 84%
    01:00 -2°C° 0 mm 3 mps 738 mmHg 85%
    02:00 -2°C° 0 mm 3 mps 738 mmHg 86%
    03:00 -2°C° 0 mm 3 mps 738 mmHg 86%
    04:00 -2°C° 0 mm 3 mps 738 mmHg 87%
    05:00 -3°C° 0 mm 4 mps 738 mmHg 87%
    06:00 -3°C° 0 mm 4 mps 739 mmHg 88%
    07:00 -2°C° 0 mm 4 mps 739 mmHg 88%
    08:00 -2°C° 0.1 mm 4 mps 739 mmHg 87%
    09:00 -1°C° 0.1 mm 5 mps 740 mmHg 86%
    10:00 -1°C° 0.1 mm 5 mps 740 mmHg 85%
    11:00 0°C° 0 mm 5 mps 740 mmHg 83%
    12:00 0°C° 0 mm 5 mps 741 mmHg 82%
    13:00 0°C° 0 mm 5 mps 741 mmHg 80%
    14:00 -1°C° 0.2 mm 6 mps 741 mmHg 81%
    15:00 -1°C° 0.2 mm 6 mps 741 mmHg 83%
    16:00 -1°C° 0.2 mm 6 mps 742 mmHg 84%
    17:00 -1°C° 0.1 mm 6 mps 742 mmHg 83%
    18:00 -1°C° 0.1 mm 6 mps 743 mmHg 83%
    19:00 -1°C° 0.1 mm 6 mps 743 mmHg 82%
    20:00 -2°C° 0 mm 6 mps 744 mmHg 84%
    21:00 -2°C° 0 mm 6 mps 744 mmHg 85%
    22:00 -2°C° 0 mm 6 mps 744 mmHg 86%
    23:00 -2°C° 0 mm 6 mps 745 mmHg 87%

    17 December, Sunday

    Time Temperature Precipitation Wind Pressure Humidity
    00:00 -3°C° 0 mm 6 mps 745 mmHg 88%
    01:00 -3°C° 0 mm 6 mps 746 mmHg 88%
    02:00 -2°C° 0 mm 5 mps 746 mmHg 88%
    03:00 -1°C° 0 mm 5 mps 746 mmHg 88%
    04:00 -1°C° 0 mm 5 mps 747 mmHg 87%
    05:00 -1°C° 0.1 mm 5 mps 747 mmHg 87%
    06:00 -1°C° 0.1 mm 5 mps 748 mmHg 87%
    07:00 -1°C° 0.1 mm 4 mps 748 mmHg 88%
    08:00 -1°C° 0 mm 5 mps 749 mmHg 86%
    09:00 -1°C° 0 mm 5 mps 749 mmHg 85%
    10:00 -1°C° 0 mm 5 mps 750 mmHg 83%
    11:00 -1°C° 0.1 mm 5 mps 750 mmHg 83%
    12:00 -1°C° 0.1 mm 5 mps 751 mmHg 82%
    13:00 -1°C° 0.1 mm 5 mps 751 mmHg 81%
    14:00 -1°C° 0.1 mm 4 mps 751 mmHg 82%
    15:00 -1°C° 0.1 mm 4 mps 752 mmHg 84%
    16:00 -1°C° 0.1 mm 4 mps 752 mmHg 85%
    17:00 -1°C° 0 mm 4 mps 753 mmHg 86%
    18:00 -1°C° 0 mm 3 mps 753 mmHg 87%
    19:00 -1°C° 0 mm 3 mps 754 mmHg 88%
    20:00 -1°C° 0 mm 3 mps 754 mmHg 89%
    21:00 -1°C° 0 mm 3 mps 755 mmHg 89%
    22:00 -1°C° 0 mm 3 mps 755 mmHg 89%
    23:00 -2°C° 0 mm 3 mps 755 mmHg 91%

    18 December, Monday

    Time Temperature Precipitation Wind Pressure Humidity
    00:00 -2°C° 0 mm 3 mps 756 mmHg 92%
    01:00 -4°C° 0 mm 3 mps 756 mmHg 94%
    02:00 -4°C° 0 mm 3 mps 756 mmHg 94%
    03:00 -4°C° 0 mm 3 mps 757 mmHg 94%
    04:00 -4°C° 0 mm 3 mps 757 mmHg 94%
    05:00 -4°C° 0 mm 3 mps 757 mmHg 94%
    06:00 -4°C° 0 mm 3 mps 757 mmHg 94%
    07:00 -3°C° 0 mm 2 mps 758 mmHg 94%
    08:00 -2°C° 0 mm 3 mps 758 mmHg 92%
    09:00 -2°C° 0 mm 3 mps 759 mmHg 90%
    10:00 -1°C° 0 mm 3 mps 759 mmHg 89%
    11:00 -1°C° 0 mm 3 mps 759 mmHg 87%
    12:00 -1°C° 0 mm 3 mps 759 mmHg 85%
    13:00 0°C° 0 mm 3 mps 759 mmHg 83%
    14:00 -1°C° 0 mm 2 mps 759 mmHg 83%
    15:00 -1°C° 0 mm 2 mps 759 mmHg 84%
    16:00 -1°C° 0 mm 2 mps 759 mmHg 84%
    17:00 -1°C° 0 mm 2 mps 760 mmHg 83%
    18:00 +1°C° 0 mm 1 mps 760 mmHg 83%
    19:00 +1°C° 0 mm 1 mps 760 mmHg 82%
    20:00 +1°C° 0 mm 1 mps 760 mmHg 82%
    21:00 +1°C° 0 mm 1 mps 761 mmHg 82%
    22:00 +1°C° 0 mm 1 mps 761 mmHg 82%
    23:00 +1°C° 0 mm 1 mps 761 mmHg 83%
    Show more